Find Starlink 32491

NORAD ID: 62043 Int'l Des: 2024-216 Owner: SPXS Country: US Constellation: starlink operational
LEOCIRCULAR

現在のビュー

3D地球を読み込み中...

About Starlink 32491

Starlink 32491 (NORAD 62043) is a starlink constellation satellite (v2 mini) launched Nov 21, 2024 by SPXS of US. It operates in LEO, CIRCULAR orbit with a mass of 730.00 kg.

Starlink 32491について

説明を読み込み中...

次回通過

Passes for default location (London). Set your location on the main map for personalized predictions.

高度履歴

Loading altitude history...

軌道要素

1 62043U 24216M 26173.33745377 .00021945 00000-0 80475-3 0 9996
2 62043 43.0052 32.8094 0000947 278.6919 81.3826 15.27574835 89797
Epoch: Jun 22, 2026 • Age: 32 hours

現在のステータス

高度 483.4 km
速度 7.63 km/s
衛星直下点 27.76°N, 87.37°W
打ち上げ日 Nov 21, 2024
運用期間 1.5 years
タイプ internet

技術仕様

分類 Payload
質量 730.00 kg
乾燥質量 700.00 kg
総質量 730.00 kg
長さ 0.30 m
直径 4.10 m
スパン 29.00 m
形状 Box + pan
製造者 SPXS
バスタイプ Starlink V2M
フェーズステータス In Orbit
所有者/国 SPXS/US

Most Searched